Regional Weather Roundup
Issued by NWS State College, PA

Home | Current Version | Previous Version | Text Only | Print | Product List | Glossary Off
Versions: 1 2 3 4 5 6 7 8 9 10 11 12 13 14 15 16 17 18 19 20 21 22 23 24 25 26 27 28 29 30 31 32 33 34 35 36 37 38 39 40 41 42 43 44 45 46 47 48 49 50

000
ASUS41 KCTP 261910
RWRCTP

REGIONAL WEATHER ROUNDUP
NATIONAL WEATHER SERVICE STATE COLLEGE PA
300 PM EDT TUE JUL 26 2016

Note: "fair" indicates few or no clouds below 12,000 feet with no
significant weather and/or obstructions to visibility.

* = STATION THAT DOES NOT REPORT PRECIPITATION /E.G. RAIN...SNOW...ETC/
    THUNDER OR FOG.

PAZ002>004-007>009-013>016-020>023-029>032-262000-
WESTERN PENNSYLVANIA

CITY           SKY/WX    TMP DP  RH WIND       PRES   REMARKS
ERIE           SUNNY     78  62  57 W8        30.04F
MEADVILLE      SUNNY     78  57  48 VRB6      30.06F
FRANKLIN*      SUNNY     81  55  41 NW7       30.08S
NEW CASTLE     FAIR      84  60  44 VRB7      30.05F
BEAVER COUNTY  MOSUNNY   86  63  45 W5        30.05F
BUTLER*        MOSUNNY   82  64  54 NW9       30.07S
PITTSBURGH INT PTSUNNY   86  61  42 NW6       30.03F
PITTSBURGH     PTSUNNY   86  64  47 N8        30.02F
INDIANA*       MOSUNNY   86  64  48 W10       30.06F
LATROBE        PTSUNNY   86  64  48 NW9       30.03F
WASHINGTON CO* PTSUNNY   88  64  45 NW7       30.04F
$$

PAZ004>006-010>012-017>019-024>028-033>037-041-042-045-046-049>053-262000-
CENTRAL PENNSYLVANIA

CITY           SKY/WX    TMP DP  RH WIND       PRES   REMARKS
BRADFORD       MOSUNNY   79  59  50 W10G16    30.06F
DUBOIS         SUNNY     84  54  35 NW10      30.04F
CLEARFIELD     SUNNY     88  53  30 W13G22    30.03S
JOHNSTOWN      MOSUNNY   81  59  47 NW13      30.07F
ALTOONA        MOSUNNY   88  59  37 W8        30.02F
STATE COLLEGE  MOSUNNY   88  59  37 NW12      29.99F
WILLIAMSPORT   SUNNY     91  59  33 SW9       29.91F
SELINSGROVE    MOSUNNY   91  68  46 VRB5      29.94F HX  95
FT INDIANTOWN  MOSUNNY   89  65  45 N5        29.94F
CAPITAL CITY   MOSUNNY   91  66  43 VRB5      29.93F
HARRISBURG     PTSUNNY   89  73  59 S5        29.92F HX  97
YORK           PTSUNNY   88  71  57 SW3       29.95F
$$

PAZ038>040-043-044-047-048-054-055-060>062-067>071-262000-
EASTERN PENNSYLVANIA

CITY           SKY/WX    TMP DP  RH WIND       PRES   REMARKS
SCRANTON       SUNNY     89  59  36 N13       29.95S
MOUNT POCONO   SUNNY     81  60  48 NW12G23   29.99S
ALLENTOWN      MOSUNNY   87  65  47 W13G18    29.92F
QUAKERTOWN*    MOCLDY    88  64  45 CALM      29.94F
READING        PTSUNNY   92  64  39 W12G20    29.92F
LANCASTER      MOSUNNY   88  66  48 NW8       29.94F
COATESVILLE    PTCLDY    86  68  54 W8        29.97F
POTTSTOWN      MOSUNNY   88  65  46 NW9       29.94F
BLUE BELL      MOSUNNY   86  68  54 W7        29.92F
DOYLESTOWN     PTSUNNY   88  62  41 NW12G20   29.91F
WILLOW GROVE   NOT AVBL
NORTH PHILA    PTSUNNY   92  67  43 W10       29.92F HX  95
PHILADELPHIA   PTSUNNY   91  67  44 NW15G21   29.91F
$$




USA.gov is the U.S. government's official web portal to all federal, state and local government web resources and services.